• In Germany
  • List of Countries
  • For 7 days
  • Water Temperature
  • Satellite Maps
  • Weather Map
  • Weather Widgets
  • user-avatar
    Login

    Hourly Weather Qala i Naw

    Today, 23 November, Thursday

    Time Temperature Precipitation Wind Pressure Humidity
    00:00 +16°C° 0 mm 3 mps 680 mmHg 31%
    01:00 +14°C° 0 mm 4 mps 679 mmHg 33%
    02:00 +14°C° 0 mm 3 mps 679 mmHg 34%
    03:00 +13°C° 0 mm 3 mps 679 mmHg 35%
    04:00 +13°C° 0 mm 3 mps 679 mmHg 36%
    05:00 +13°C° 0 mm 3 mps 679 mmHg 37%
    06:00 +12°C° 0 mm 3 mps 679 mmHg 37%
    07:00 +12°C° 0 mm 3 mps 679 mmHg 37%
    08:00 +14°C° 0 mm 3 mps 679 mmHg 32%
    09:00 +18°C° 0 mm 3 mps 680 mmHg 27%
    10:00 +20°C° 0 mm 3 mps 680 mmHg 22%
    11:00 +21°C° 0 mm 3 mps 680 mmHg 21%
    12:00 +21°C° 0 mm 3 mps 680 mmHg 20%
    13:00 +23°C° 0 mm 2 mps 679 mmHg 19%
    14:00 +23°C° 0 mm 2 mps 679 mmHg 20%
    15:00 +21°C° 0 mm 2 mps 679 mmHg 21%
    16:00 +21°C° 0 mm 2 mps 679 mmHg 21%
    17:00 +20°C° 0 mm 2 mps 679 mmHg 23%
    18:00 +19°C° 0 mm 2 mps 679 mmHg 25%
    19:00 +18°C° 0 mm 2 mps 679 mmHg 27%
    20:00 +18°C° 0 mm 2 mps 679 mmHg 27%
    21:00 +17°C° 0 mm 2 mps 679 mmHg 28%
    22:00 +17°C° 0 mm 2 mps 679 mmHg 28%
    23:00 +17°C° 0 mm 2 mps 679 mmHg 28%

    Tomorrow, 24 November, Friday

    Time Temperature Precipitation Wind Pressure Humidity
    00:00 +17°C° 0 mm 2 mps 679 mmHg 28%
    01:00 +17°C° 0 mm 2 mps 679 mmHg 28%
    02:00 +16°C° 0 mm 2 mps 679 mmHg 29%
    03:00 +16°C° 0 mm 2 mps 679 mmHg 29%
    04:00 +16°C° 0 mm 2 mps 679 mmHg 30%
    05:00 +15°C° 0.1 mm 2 mps 679 mmHg 33%
    06:00 +15°C° 0.1 mm 2 mps 680 mmHg 36%
    07:00 +14°C° 0.1 mm 2 mps 680 mmHg 39%
    08:00 +15°C° 0.1 mm 2 mps 681 mmHg 41%
    09:00 +15°C° 0.1 mm 2 mps 681 mmHg 42%
    10:00 +15°C° 0.1 mm 2 mps 681 mmHg 43%
    11:00 +16°C° 0 mm 2 mps 681 mmHg 41%
    12:00 +17°C° 0 mm 3 mps 681 mmHg 39%
    13:00 +18°C° 0 mm 3 mps 681 mmHg 37%
    14:00 +18°C° 0 mm 3 mps 681 mmHg 37%
    15:00 +18°C° 0 mm 3 mps 680 mmHg 37%
    16:00 +18°C° 0 mm 3 mps 680 mmHg 37%
    17:00 +17°C° 0 mm 3 mps 680 mmHg 40%
    18:00 +16°C° 0 mm 2 mps 680 mmHg 43%
    19:00 +14°C° 0 mm 2 mps 680 mmHg 46%
    20:00 +14°C° 0 mm 2 mps 679 mmHg 46%
    21:00 +14°C° 0 mm 2 mps 679 mmHg 47%
    22:00 +13°C° 0 mm 2 mps 679 mmHg 47%
    23:00 +13°C° 0 mm 2 mps 679 mmHg 46%

    Day after tomorrow, 25 November, Saturday

    Time Temperature Precipitation Wind Pressure Humidity
    00:00 +13°C° 0 mm 2 mps 679 mmHg 45%
    01:00 +13°C° 0 mm 2 mps 679 mmHg 44%
    02:00 +13°C° 0.1 mm 2 mps 678 mmHg 46%
    03:00 +12°C° 0.1 mm 2 mps 678 mmHg 48%
    04:00 +12°C° 0.1 mm 2 mps 678 mmHg 51%
    05:00 +12°C° 0.3 mm 2 mps 679 mmHg 55%
    06:00 +12°C° 0.3 mm 1 mps 679 mmHg 58%
    07:00 +12°C° 0.3 mm 1 mps 679 mmHg 62%
    08:00 +12°C° 0.5 mm 1 mps 680 mmHg 60%
    09:00 +13°C° 0.5 mm 2 mps 681 mmHg 59%
    10:00 +14°C° 0.5 mm 2 mps 681 mmHg 58%
    11:00 +13°C° 0.1 mm 3 mps 681 mmHg 55%
    12:00 +14°C° 0.1 mm 4 mps 682 mmHg 53%
    13:00 +14°C° 0.1 mm 5 mps 682 mmHg 51%
    14:00 +14°C° 0 mm 4 mps 682 mmHg 52%
    15:00 +13°C° 0 mm 4 mps 682 mmHg 53%
    16:00 +13°C° 0 mm 4 mps 683 mmHg 55%
    17:00 +12°C° 0 mm 4 mps 683 mmHg 58%
    18:00 +10°C° 0 mm 3 mps 684 mmHg 62%
    19:00 +9°C° 0 mm 2 mps 684 mmHg 66%
    20:00 +9°C° 0 mm 2 mps 685 mmHg 66%
    21:00 +8°C° 0 mm 2 mps 685 mmHg 66%
    22:00 +8°C° 0 mm 2 mps 685 mmHg 66%
    23:00 +8°C° 0 mm 1 mps 685 mmHg 66%

    26 November, Sunday

    Time Temperature Precipitation Wind Pressure Humidity
    00:00 +8°C° 0 mm 1 mps 685 mmHg 65%
    01:00 +8°C° 0 mm 1 mps 685 mmHg 64%
    02:00 +7°C° 0 mm 1 mps 685 mmHg 65%
    03:00 +7°C° 0 mm 1 mps 685 mmHg 66%
    04:00 +7°C° 0 mm 1 mps 686 mmHg 66%
    05:00 +6°C° 0 mm 1 mps 686 mmHg 67%
    06:00 +6°C° 0 mm 1 mps 686 mmHg 68%
    07:00 +6°C° 0 mm 1 mps 687 mmHg 68%
    08:00 +7°C° 0 mm 1 mps 687 mmHg 63%
    09:00 +8°C° 0 mm 2 mps 688 mmHg 57%
    10:00 +9°C° 0 mm 2 mps 688 mmHg 51%
    11:00 +10°C° 0 mm 3 mps 688 mmHg 48%
    12:00 +10°C° 0 mm 3 mps 687 mmHg 46%
    13:00 +11°C° 0 mm 3 mps 687 mmHg 43%
    14:00 +11°C° 0 mm 3 mps 687 mmHg 45%
    15:00 +10°C° 0 mm 3 mps 687 mmHg 47%
    16:00 +10°C° 0 mm 3 mps 687 mmHg 49%
    17:00 +9°C° 0 mm 2 mps 687 mmHg 53%
    18:00 +9°C° 0 mm 2 mps 687 mmHg 57%
    19:00 +8°C° 0 mm 2 mps 687 mmHg 62%
    20:00 +7°C° 0 mm 2 mps 687 mmHg 62%
    21:00 +8°C° 0 mm 1 mps 687 mmHg 62%
    22:00 +8°C° 0 mm 1 mps 686 mmHg 62%
    23:00 +7°C° 0 mm 1 mps 686 mmHg 62%

    27 November, Monday

    Time Temperature Precipitation Wind Pressure Humidity
    00:00 +7°C° 0 mm 1 mps 686 mmHg 63%
    01:00 +7°C° 0 mm 1 mps 685 mmHg 63%
    02:00 +6°C° 0 mm 1 mps 685 mmHg 63%
    03:00 +6°C° 0 mm 1 mps 685 mmHg 62%
    04:00 +6°C° 0 mm 1 mps 685 mmHg 62%
    05:00 +6°C° 0 mm 1 mps 685 mmHg 61%
    06:00 +6°C° 0 mm 1 mps 685 mmHg 60%
    07:00 +6°C° 0 mm 1 mps 685 mmHg 59%
    08:00 +7°C° 0 mm 1 mps 685 mmHg 54%
    09:00 +8°C° 0 mm 2 mps 686 mmHg 50%
    10:00 +9°C° 0 mm 2 mps 686 mmHg 45%
    11:00 +9°C° 0 mm 2 mps 685 mmHg 43%
    12:00 +10°C° 0 mm 3 mps 685 mmHg 40%
    13:00 +11°C° 0 mm 3 mps 684 mmHg 38%
    14:00 +11°C° 0 mm 3 mps 684 mmHg 39%
    15:00 +10°C° 0 mm 3 mps 684 mmHg 39%
    16:00 +10°C° 0 mm 3 mps 684 mmHg 40%
    17:00 +9°C° 0 mm 2 mps 684 mmHg 43%
    18:00 +8°C° 0 mm 2 mps 685 mmHg 46%
    19:00 +8°C° 0 mm 1 mps 685 mmHg 49%
    20:00 +8°C° 0 mm 1 mps 685 mmHg 50%
    21:00 +7°C° 0 mm 1 mps 685 mmHg 50%
    22:00 +7°C° 0 mm 1 mps 685 mmHg 51%
    23:00 +7°C° 0 mm 1 mps 684 mmHg 51%

    28 November, Tuesday

    Time Temperature Precipitation Wind Pressure Humidity
    00:00 +6°C° 0 mm 1 mps 684 mmHg 51%
    01:00 +6°C° 0 mm 1 mps 684 mmHg 51%
    02:00 +6°C° 0 mm 1 mps 684 mmHg 51%
    03:00 +6°C° 0 mm 1 mps 683 mmHg 50%
    04:00 +6°C° 0 mm 1 mps 683 mmHg 50%
    05:00 +6°C° 0 mm 1 mps 683 mmHg 49%
    06:00 +6°C° 0 mm 1 mps 683 mmHg 48%
    07:00 +6°C° 0 mm 1 mps 684 mmHg 46%
    08:00 +7°C° 0 mm 1 mps 684 mmHg 43%
    09:00 +9°C° 0 mm 1 mps 684 mmHg 39%
    10:00 +10°C° 0 mm 1 mps 684 mmHg 35%
    11:00 +9°C° 0 mm 2 mps 684 mmHg 34%
    12:00 +10°C° 0 mm 2 mps 684 mmHg 33%
    13:00 +12°C° 0 mm 2 mps 683 mmHg 31%
    14:00 +12°C° 0 mm 2 mps 683 mmHg 32%
    15:00 +12°C° 0 mm 2 mps 683 mmHg 32%
    16:00 +12°C° 0 mm 2 mps 683 mmHg 33%
    17:00 +10°C° 0 mm 2 mps 683 mmHg 35%
    18:00 +10°C° 0 mm 1 mps 683 mmHg 37%
    19:00 +9°C° 0 mm 1 mps 683 mmHg 39%
    20:00 +9°C° 0 mm 1 mps 683 mmHg 41%
    21:00 +8°C° 0 mm 1 mps 683 mmHg 43%
    22:00 +8°C° 0 mm 1 mps 682 mmHg 45%
    23:00 +7°C° 0 mm 0 mps 682 mmHg 46%
    Show more